Regional Weather Roundup
Issued by NWS

Home | Current Version | Previous Version | Text Only | Print | Product List | Glossary On
Versions: 1 2 3 4 5 6 7 8 9 10 11 12 13 14 15 16 17 18 19 20 21 22 23 24 25 26 27 28 29 30 31 32 33 34 35 36 37 38 39 40 41 42 43 44 45 46 47 48 49 50
000
ASUS46 KSTO 290804
RWRCA

NORTHERN AND CENTRAL CA REGIONAL WEATHER ROUNDUP
NATIONAL WEATHER SERVICE SACRAMENTO CA
100 AM PDT WED MAR 29 2017

NOTE: FAIR INDICATES FEW OR NO CLOUDS BELOW 12,000 FEET WITH NO
SIGNIFICANT WEATHER AND/OR OBSTRUCTIONS TO VISIBILITY.

CAZ001-003-290900-
NORTHWEST AREA

CITY           SKY/WX    TMP DP  RH WIND       PRES   REMARKS
CRESCENT CITY  CLOUDY    53  49  86 SE7       30.29F
UKIAH          MOCLDY    50  43  77 CALM      30.24R
$$

CAZ006-505>513-290900-
BAY AREA

CITY           SKY/WX    TMP DP  RH WIND       PRES   REMARKS
SANTA ROSA     CLEAR     55  40  56 CALM      30.18S
SAN RAFAEL     N/A       61  MM  MM MISG
NAPA           CLEAR     53  48  83 SW7       30.19S
CONCORD        CLEAR     56  47  71 CALM      30.19F
OAKLAND CITY   N/A      MM  MM  MM MISG
OAKLAND        CLEAR     57  53  86 CALM      30.20S
SAN FRAN CITY  N/A       57  MM  61 MISG
SAN FRAN ARPT  PTCLDY    55  45  68 W7        30.20S
LIVERMORE      CLEAR     51  45  79 CALM      30.19S
HAYWARD        CLEAR     57  46  66 CALM      30.19S
REDWOOD CITY   N/A       53  MM  76 MISG
MOFFETT ARPT   CLEAR     56  47  71 CALM      30.21S
SAN JOSE ARPT  CLEAR     55  47  74 CALM      30.20S
$$
CAZ034-037-514>518-290900-
CENTRAL COAST

CITY           SKY/WX    TMP DP  RH WIND       PRES   REMARKS
WATSONVILLE    CLEAR     51  48  89 NW5       30.20S
SALINAS        CLEAR     52  47  83 N6        30.19S
MONTEREY       CLEAR     52  47  83 CALM      30.20F
SAN LUIS OBISP CLEAR     62  41  46 NW12      30.12F
SANTA MARIA    CLEAR     56  43  61 NW6       30.11S
$$
CAZ015-016-290900-
NORTHERN SACRAMENTO VALLEY

CITY           SKY/WX    TMP DP  RH WIND       PRES   REMARKS
REDDING        CLOUDY    55  43  63 CALM      30.19S
RED BLUFF      MOCLDY    57  42  57 NW7       30.19F
OROVILLE       PTCLDY    55  43  63 NW3       30.16S
$$
CAZ016>018-290900-
SOUTHERN SACRAMENTO VALLEY

CITY           SKY/WX    TMP DP  RH WIND       PRES   REMARKS
AUBURN         CLEAR     54  41  62 E3        30.18S
LINCOLN        FAIR      46  43  87 CALM      30.15S
MARYSVILLE     CLEAR     59  43  55 N8        30.15F
SAC INTL ARPT  CLEAR     56  46  69 N7        30.15R
MATHER AIRPORT NOT AVBL
DOWNTOWN SAC   N/A       59  MM  MM MISG
SAC EXEC ARPT  CLEAR     58  44  60 N6        30.16R
VACAVILLE      CLEAR     64  41  42 NW7       30.17S
$$
CAZ019>021-290900-
SAN JOAQUIN VALLEY

CITY           SKY/WX    TMP DP  RH WIND       PRES   REMARKS
STOCKTON       CLEAR     52  45  77 SW3       30.16R
MODESTO        CLEAR     53  48  83 E5        30.16S
MERCED         CLEAR     48  46  93 E5        30.16F
LEMOORE        CLEAR     48  39  71 W6        30.19S
FRESNO         CLEAR     54  47  77 CALM      30.18F
HANFORD        CLEAR     53  48  83 NW3       30.18F
PORTERVILLE    CLEAR     50  45  83 CALM      30.20S
BAKERSFIELD    CLEAR     57  43  59 E5        30.18S
$$
CAZ011-012-071-290900-
NORTHERN MOUNTAINS

CITY           SKY/WX    TMP DP  RH WIND       PRES   REMARKS
YREKA          CLOUDY    46  40  79 E5        30.27S
MOUNT SHASTA   MOCLDY    40  34  79 NE3       30.27F
ALTURAS        PTCLDY    31  29  92 CALM      30.30F
$$
CAZ011-012-071-290900-
SIERRA NEVADA MTNS

CITY           SKY/WX    TMP DP  RH WIND       PRES   REMARKS
BLUE CANYON    CLEAR     48  25  40 NE6       30.27S
TRUCKEE        CLEAR     27  25  93 CALM      30.32S
TAHOE VLY ARPT CLEAR     30  26  85 S5        30.31S WCI  25
MAMMOTH LAKES  FAIR      31  22  69 N3        30.30F
$$




USA.gov is the U.S. government's official web portal to all federal, state and local government web resources and services.